STARLINK-11267, 60994

Orbit data source: Space-Track

STARLINK-11267, 60994 is a payload satellite owned by SpaceX/Seattle (US) in LEO that was launched on Thu, 05 Sep 2024 UTC via an FALCON 9 launch vehicle from the Air Force Eastern Test Range (AFETR). Payload-class satellites include a variety of spacecraft equipped with specific instruments for various scientific and technological missions. These include communications satellites like Starlink; space stations such as the ISS; scientific satellites like the Hubble; Earth observation satellites from companies like Planet Labs, Umbra, and HawkEye 360; GPS; miniature CubeSats for education and research; and military/defense satellites.

Loading next visibility...
Identifier
60994, 2024-158E
Orbit
LEO
Country
Flag of USUS
Related business
Manufacturer
SpaceX/Seattle
Mission
Operational Commercial Communications
Bus & Motor
STARLINK V2MD, Unknown motor
Mass
960 kg wet, ~910 kg dry
Launch date (UTC)
2024-09-05 (2 years ago)
Launch vehicle
FALCON 9
Launch site
Air Force Eastern Test Range (AFETR)
Object type
Payload
Rocket body
Debris
Shape & HBR
Box + 2 Pan, 18.1 m
Radar Cross Section
36.964 m², Large (>1 m²)

Expand to show TLE details & history
Last TLE update: 13 hours ago

TLE from 13 hours ago
0 STARLINK-11267
1 60994U 24158E   26264.55613530  .00000283  00000-0  71934-5 0  9998
2 60994  53.1609  36.0156 0000843  92.1724 267.9391 15.69708872118353
Epoch: 2026-09-21T13:20Z
TLE epoch observation values (Epoch: 2026-09-21T13:20:50.089Z)
Latitude
-0°
Longitude
-164.62738°
Altitude
360.666 km
Speed
7.694 km/s
True Right ascension
02h 24m 03s
True Declination
0° 00' 00"
Sunlit
Object was in full shadow at epoch
Visualization orbit readout
Latitude
Unknown
Longitude
Unknown
Altitude
Unknown
Speed
Unknown
Apparent Right ascension
Unknown
Apparent Declination
Unknown
Sunlit
N/A
Visualization observer readout
Local Sidereal Time
19:49:33
Azimuth
Unknown
Elevation
Unknown
Doppler factor
Unknown
Orbital elements
Apogee altitude
360.559 km
Perigee altitude
359.422 km
Semi-major axis
6,738.128 km
Eccentricity
0.00008
Inclination
53.1609°
RAAN
36.0156°
Arg. of periapsis
92.1724°
True anomaly
267.92945°
Mean anomaly
267.9391°
Eccentric anomaly
267.93427°
Mean motion
3.92405 °/min
Orbital period
91.74 mins
BSTAR
0.0000071934
Loading maneuver chart data...
Computing Atmospheric mass density...
Loading historical data...
Loading historical data...
Loading historical data...
Loading historical data...
Loading historical data...
Loading historical data...
Loading historical data...

Documentation

Showing up to 5 results
|